ENT6PY EPKT-LGIR

Flight info

Callsign ENT6PY
Flight time 2h 12m
Altitude 33000
Route N0438F330 BABKO DCT NIDOK DCT PARAK DCT IBISI/N0445F370 DCT MAKED/N0445F390 DCT SIGFO DCT KEA UL607 GIVIS T514 XAVIS
Aircraft B738/M-DFGHIJ1LORVWXY/EB1

Departure

Time 2026-04-29 15:14
Airport Katowice Wojciech Korfanty International Airport (EPKT)

Arrival

Time 2026-04-29 17:27
Airport Heraklion International Nikos Kazantzakis Airport (LGIR)
Time Latitude Longitude Altitude Speed Heading
2026-04-29 14:51 50.47145 19.08884 998 ft 0 kts 180°
2026-04-29 15:05 50.47156 19.08884 997 ft 2 kts 180°
2026-04-29 15:05 50.47171 19.08884 997 ft 2 kts 180°
2026-04-29 15:06 50.47185 19.08884 997 ft 2 kts 180°
2026-04-29 15:06 50.47201 19.08884 997 ft 2 kts 180°
2026-04-29 15:06 50.47216 19.08888 997 ft 2 kts 211°
2026-04-29 15:06 50.47227 19.08904 997 ft 2 kts 237°
2026-04-29 15:07 50.47232 19.08925 997 ft 1 kts 264°
2026-04-29 15:07 50.47232 19.08935 997 ft 1 kts 272°
2026-04-29 15:07 50.47232 19.08939 997 ft 0 kts 270°
2026-04-29 15:08 50.47232 19.08903 997 ft 6 kts 271°
2026-04-29 15:09 50.47233 19.08835 996 ft 6 kts 271°
2026-04-29 15:09 50.47234 19.08766 996 ft 6 kts 271°
2026-04-29 15:09 50.47235 19.08675 995 ft 9 kts 271°
2026-04-29 15:09 50.47257 19.08598 994 ft 8 kts 345°
2026-04-29 15:10 50.47372 19.08584 993 ft 23 kts 358°
2026-04-29 15:10 50.47425 19.08449 992 ft 16 kts 270°
2026-04-29 15:10 50.47427 19.08273 991 ft 16 kts 269°
2026-04-29 15:10 50.47426 19.08098 991 ft 15 kts 270°
2026-04-29 15:11 50.47427 19.07932 990 ft 14 kts 271°
2026-04-29 15:11 50.47429 19.07772 990 ft 14 kts 270°
2026-04-29 15:11 50.47430 19.07619 990 ft 16 kts 271°
2026-04-29 15:11 50.47429 19.07360 989 ft 27 kts 270°
2026-04-29 15:12 50.47430 19.07068 988 ft 26 kts 270°
2026-04-29 15:12 50.47432 19.06873 987 ft 26 kts 271°
2026-04-29 15:12 50.47430 19.06490 985 ft 26 kts 270°
2026-04-29 15:12 50.47431 19.06199 982 ft 26 kts 271°
2026-04-29 15:13 50.47492 19.05974 981 ft 22 kts
2026-04-29 15:13 50.47604 19.06034 980 ft 14 kts 77°
2026-04-29 15:13 50.47605 19.06231 982 ft 35 kts 90°
2026-04-29 15:13 50.47603 19.07027 987 ft 108 kts 89°
2026-04-29 15:14 50.47598 19.08530 998 ft 166 kts 86°
2026-04-29 15:14 50.47568 19.10379 1641 ft 172 kts 88°
2026-04-29 15:14 50.47504 19.12143 2479 ft 162 kts 86°
2026-04-29 15:14 50.47499 19.13952 2948 ft 170 kts 83°
2026-04-29 15:15 50.47427 19.15815 3489 ft 179 kts 102°
2026-04-29 15:15 50.46643 19.17454 3852 ft 205 kts 144°
2026-04-29 15:15 50.45240 19.18194 4239 ft 225 kts 166°
2026-04-29 15:15 50.43648 19.18627 4696 ft 238 kts 167°
2026-04-29 15:16 50.42011 19.19117 5262 ft 247 kts 165°
2026-04-29 15:16 50.40311 19.19689 5881 ft 255 kts 165°
2026-04-29 15:16 50.38536 19.20313 6357 ft 270 kts 164°
2026-04-29 15:16 50.36664 19.20974 6922 ft 280 kts 165°
2026-04-29 15:17 50.34755 19.21643 7627 ft 285 kts 165°
2026-04-29 15:17 50.32823 19.22317 8388 ft 288 kts 165°
2026-04-29 15:17 50.30854 19.23006 9145 ft 291 kts 165°
2026-04-29 15:17 50.28907 19.23690 9903 ft 294 kts 165°
2026-04-29 15:18 50.26887 19.24402 10628 ft 297 kts 165°
2026-04-29 15:18 50.24833 19.25130 11028 ft 313 kts 165°
2026-04-29 15:18 50.22671 19.25897 11417 ft 328 kts 165°
2026-04-29 15:18 50.20403 19.26694 11781 ft 343 kts 166°
2026-04-29 15:19 50.18031 19.27520 12161 ft 357 kts 166°
2026-04-29 15:19 50.15570 19.28370 12747 ft 365 kts 166°
2026-04-29 15:19 50.13070 19.29231 13399 ft 370 kts 167°
2026-04-29 15:19 50.10571 19.30091 14052 ft 375 kts 167°
2026-04-29 15:20 50.07994 19.30976 14683 ft 380 kts 167°
2026-04-29 15:20 50.05419 19.31861 15301 ft 385 kts 168°
2026-04-29 15:20 50.02772 19.32770 15878 ft 391 kts 168°
2026-04-29 15:20 50.00113 19.33683 16433 ft 397 kts 168°
2026-04-29 15:21 49.97430 19.34603 17016 ft 402 kts 169°
2026-04-29 15:21 49.94671 19.35547 17570 ft 408 kts 169°
2026-04-29 15:21 49.91885 19.36499 18129 ft 413 kts 170°
2026-04-29 15:21 49.89083 19.37452 18689 ft 417 kts 170°
2026-04-29 15:22 49.86218 19.38424 19304 ft 420 kts 170°
2026-04-29 15:22 49.83350 19.39397 19836 ft 424 kts 171°
2026-04-29 15:22 49.80475 19.40370 20363 ft 428 kts 171°
2026-04-29 15:22 49.77584 19.41347 20930 ft 431 kts 171°
2026-04-29 15:23 49.74633 19.42343 21478 ft 433 kts 171°
2026-04-29 15:23 49.71677 19.43341 22007 ft 436 kts 171°
2026-04-29 15:23 49.68745 19.44323 22547 ft 437 kts 173°
2026-04-29 15:23 49.65743 19.45103 22992 ft 437 kts 178°
2026-04-29 15:24 49.62731 19.45271 23333 ft 434 kts 189°
2026-04-29 15:24 49.59764 19.44661 23748 ft 428 kts 199°
2026-04-29 15:24 49.56945 19.43294 24215 ft 420 kts 210°
2026-04-29 15:24 49.54243 19.41546 24603 ft 425 kts 207°
2026-04-29 15:25 49.51370 19.40333 24992 ft 438 kts 197°
2026-04-29 15:25 49.48310 19.39862 25455 ft 448 kts 187°
2026-04-29 15:25 49.45139 19.40157 25815 ft 459 kts 178°
2026-04-29 15:25 49.41976 19.41062 26237 ft 465 kts 172°
2026-04-29 15:26 49.38790 19.42224 26631 ft 469 kts 171°
2026-04-29 15:26 49.35591 19.43411 27018 ft 471 kts 172°
2026-04-29 15:26 49.32418 19.44513 27320 ft 474 kts 173°
2026-04-29 15:26 49.29175 19.45524 27709 ft 476 kts 175°
2026-04-29 15:27 49.25883 19.46443 28107 ft 477 kts 176°
2026-04-29 15:27 49.22621 19.47271 28476 ft 479 kts 177°
2026-04-29 15:27 49.19297 19.48051 28814 ft 482 kts 178°
2026-04-29 15:27 49.15977 19.48792 29118 ft 485 kts 178°
2026-04-29 15:28 49.12626 19.49519 29417 ft 489 kts 178°
2026-04-29 15:28 49.10397 19.49995 29687 ft 489 kts 179°
2026-04-29 15:28 49.05888 19.50956 30093 ft 493 kts 179°
2026-04-29 15:28 49.02507 19.51671 30460 ft 494 kts 179°
2026-04-29 15:29 48.99083 19.52399 30897 ft 491 kts 179°
2026-04-29 15:29 48.92416 19.53821 31695 ft 486 kts 178°
2026-04-29 15:30 48.85726 19.55239 32292 ft 485 kts 178°
2026-04-29 15:30 48.82358 19.55950 32598 ft 485 kts 178°
2026-04-29 15:30 48.79053 19.56647 32865 ft 484 kts 177°
2026-04-29 15:30 48.75692 19.57352 33053 ft 487 kts 177°
2026-04-29 15:31 48.72361 19.58050 33263 ft 488 kts 177°
2026-04-29 15:31 48.69021 19.58752 33543 ft 488 kts 176°
2026-04-29 15:31 48.65632 19.59465 33864 ft 486 kts 176°
2026-04-29 15:31 48.62340 19.60160 34264 ft 483 kts 176°
2026-04-29 15:32 48.58989 19.60866 34623 ft 481 kts 176°
2026-04-29 15:32 48.55689 19.61560 34919 ft 480 kts 176°
2026-04-29 15:32 48.52403 19.62250 35143 ft 480 kts 176°
2026-04-29 15:32 48.49091 19.62942 35275 ft 483 kts 176°
2026-04-29 15:33 48.45780 19.63633 35475 ft 484 kts 176°
2026-04-29 15:33 48.42457 19.64326 35750 ft 483 kts 176°
2026-04-29 15:33 48.39143 19.65018 36040 ft 481 kts 177°
2026-04-29 15:33 48.35785 19.65717 36364 ft 478 kts 177°
2026-04-29 15:34 48.32525 19.66393 36689 ft 474 kts 176°
2026-04-29 15:34 48.29284 19.67066 36936 ft 472 kts 176°
2026-04-29 15:34 48.26059 19.67735 37149 ft 471 kts 176°
2026-04-29 15:35 48.19557 19.69076 37217 ft 477 kts 176°
2026-04-29 15:35 48.12960 19.70433 37214 ft 477 kts 176°
2026-04-29 15:36 48.06413 19.71781 37216 ft 476 kts 177°
2026-04-29 15:36 47.99865 19.73126 37200 ft 474 kts 176°
2026-04-29 15:37 47.93336 19.74462 37205 ft 475 kts 177°
2026-04-29 15:37 47.86789 19.75796 37210 ft 476 kts 177°
2026-04-29 15:38 47.80235 19.77129 37203 ft 476 kts 177°
2026-04-29 15:38 47.73690 19.78457 37209 ft 475 kts 177°
2026-04-29 15:39 47.67159 19.79777 37113 ft 473 kts 177°
2026-04-29 15:39 47.60611 19.81097 37251 ft 479 kts 177°
2026-04-29 15:40 47.54081 19.82414 37213 ft 476 kts 177°
2026-04-29 15:40 47.47505 19.83735 37214 ft 477 kts 178°
2026-04-29 15:41 47.40947 19.85053 37210 ft 476 kts 178°
2026-04-29 15:41 47.34397 19.86363 37202 ft 476 kts 178°
2026-04-29 15:42 47.27828 19.87672 37190 ft 476 kts 178°
2026-04-29 15:42 47.21291 19.88972 37201 ft 476 kts 178°
2026-04-29 15:43 47.14746 19.90273 37184 ft 474 kts 178°
2026-04-29 15:43 47.08194 19.91569 37177 ft 476 kts 178°
2026-04-29 15:44 47.01660 19.92857 37166 ft 475 kts 178°
2026-04-29 15:44 46.95147 19.94141 37184 ft 474 kts 178°
2026-04-29 15:45 46.88622 19.95422 37183 ft 474 kts 179°
2026-04-29 15:45 46.82095 19.96701 37182 ft 476 kts 179°
2026-04-29 15:46 46.75549 19.97979 37171 ft 475 kts 178°
2026-04-29 15:46 46.68979 19.99263 37175 ft 474 kts 178°
2026-04-29 15:47 46.62503 20.00529 37176 ft 473 kts 179°
2026-04-29 15:47 46.55995 20.01791 37176 ft 473 kts 179°
2026-04-29 15:48 46.49474 20.03055 37172 ft 472 kts 179°
2026-04-29 15:48 46.42985 20.04309 37177 ft 472 kts 179°
2026-04-29 15:49 46.36496 20.05557 37173 ft 472 kts 179°
2026-04-29 15:49 46.29999 20.06804 37178 ft 473 kts 179°
2026-04-29 15:50 46.23505 20.08051 37169 ft 472 kts 179°
2026-04-29 15:50 46.17004 20.09473 37175 ft 476 kts 174°
2026-04-29 15:51 46.10614 20.12078 37175 ft 480 kts 167°
2026-04-29 15:51 46.04345 20.15376 37174 ft 483 kts 165°
2026-04-29 15:52 45.98042 20.18837 37188 ft 484 kts 165°
2026-04-29 15:52 45.91767 20.22224 37171 ft 484 kts 165°
2026-04-29 15:53 45.85447 20.25564 37197 ft 484 kts 165°
2026-04-29 15:53 45.79132 20.28859 37172 ft 483 kts 165°
2026-04-29 15:54 45.72820 20.32130 37168 ft 483 kts 166°
2026-04-29 15:54 45.66543 20.35376 37169 ft 482 kts 166°
2026-04-29 15:55 45.60247 20.38620 37162 ft 483 kts 166°
2026-04-29 15:55 45.53961 20.41850 37167 ft 484 kts 166°
2026-04-29 15:56 45.47671 20.45078 37170 ft 481 kts 166°
2026-04-29 15:56 45.41341 20.48316 37181 ft 483 kts 166°
2026-04-29 15:57 45.35041 20.51536 37152 ft 482 kts 166°
2026-04-29 15:57 45.28746 20.54745 37158 ft 481 kts 166°
2026-04-29 15:58 45.22465 20.57937 37179 ft 482 kts 166°
2026-04-29 15:58 45.16143 20.61142 37151 ft 481 kts 166°
2026-04-29 15:59 45.09875 20.64312 37158 ft 482 kts 166°
2026-04-29 15:59 45.03580 20.67489 37163 ft 479 kts 167°
2026-04-29 16:00 44.97295 20.70652 37150 ft 480 kts 167°
2026-04-29 16:00 44.91034 20.73795 37156 ft 481 kts 167°
2026-04-29 16:01 44.84714 20.76963 37152 ft 479 kts 167°
2026-04-29 16:01 44.78453 20.80093 37153 ft 481 kts 167°
2026-04-29 16:02 44.72189 20.83219 37151 ft 480 kts 167°
2026-04-29 16:02 44.65894 20.86347 37147 ft 479 kts 167°
2026-04-29 16:03 44.59605 20.89462 37143 ft 479 kts 167°
2026-04-29 16:03 44.53362 20.92551 37142 ft 480 kts 167°
2026-04-29 16:04 44.47098 20.95650 37123 ft 479 kts 167°
2026-04-29 16:04 44.40797 20.98765 37131 ft 479 kts 167°
2026-04-29 16:05 44.34501 21.01866 37133 ft 480 kts 167°
2026-04-29 16:05 44.28247 21.04937 37140 ft 480 kts 166°
2026-04-29 16:06 44.21954 21.08020 37114 ft 479 kts 167°
2026-04-29 16:06 44.15715 21.11070 37117 ft 477 kts 167°
2026-04-29 16:07 44.09449 21.14122 37099 ft 478 kts 167°
2026-04-29 16:07 44.03168 21.17176 37110 ft 480 kts 167°
2026-04-29 16:08 43.96897 21.20218 37095 ft 478 kts 166°
2026-04-29 16:08 43.90639 21.23247 37104 ft 478 kts 167°
2026-04-29 16:09 43.84338 21.26291 37097 ft 477 kts 166°
2026-04-29 16:09 43.78091 21.29299 37097 ft 478 kts 166°
2026-04-29 16:10 43.71829 21.32308 37093 ft 477 kts 166°
2026-04-29 16:10 43.65537 21.35329 37090 ft 477 kts 166°
2026-04-29 16:11 43.59291 21.38326 37089 ft 477 kts 166°
2026-04-29 16:11 43.53030 21.41322 37087 ft 476 kts 166°
2026-04-29 16:12 43.46790 21.44298 37085 ft 476 kts 166°
2026-04-29 16:12 43.40548 21.47260 37086 ft 476 kts 166°
2026-04-29 16:13 43.34295 21.50226 37090 ft 476 kts 166°
2026-04-29 16:13 43.29076 21.52701 37086 ft 476 kts 166°
2026-04-29 16:14 43.21809 21.56141 37086 ft 476 kts 166°
2026-04-29 16:14 43.15523 21.59106 37260 ft 479 kts 166°
2026-04-29 16:14 43.12397 21.60580 37658 ft 476 kts 166°
2026-04-29 16:15 43.09300 21.62038 37951 ft 476 kts 166°
2026-04-29 16:15 43.06158 21.63515 38207 ft 475 kts 166°
2026-04-29 16:15 43.03025 21.64986 38499 ft 474 kts 166°
2026-04-29 16:15 42.99913 21.66444 38708 ft 474 kts 167°
2026-04-29 16:16 42.96801 21.67900 38893 ft 474 kts 167°
2026-04-29 16:16 42.93670 21.69363 39037 ft 474 kts 166°
2026-04-29 16:16 42.90567 21.70813 39079 ft 476 kts 166°
2026-04-29 16:17 42.84291 21.73751 39073 ft 474 kts 166°
2026-04-29 16:17 42.78075 21.76660 39077 ft 474 kts 166°
2026-04-29 16:18 42.71862 21.79559 39076 ft 474 kts 166°
2026-04-29 16:18 42.65629 21.82460 39073 ft 473 kts 166°
2026-04-29 16:19 42.59419 21.85341 39073 ft 472 kts 166°
2026-04-29 16:19 42.53200 21.88220 39070 ft 473 kts 166°
2026-04-29 16:20 42.46999 21.91086 39064 ft 472 kts 166°
2026-04-29 16:20 42.40792 21.93950 39061 ft 472 kts 166°
2026-04-29 16:21 42.34602 21.96798 39065 ft 472 kts 166°
2026-04-29 16:21 42.28403 21.99646 39062 ft 471 kts 166°
2026-04-29 16:22 42.22216 22.02485 39050 ft 471 kts 166°
2026-04-29 16:22 42.16024 22.05320 39049 ft 471 kts 166°
2026-04-29 16:23 42.09854 22.08138 39051 ft 471 kts 166°
2026-04-29 16:23 42.03636 22.10971 39038 ft 471 kts 166°
2026-04-29 16:24 41.97432 22.13791 39033 ft 471 kts 166°
2026-04-29 16:24 41.91254 22.16594 39035 ft 470 kts 166°
2026-04-29 16:25 41.85054 22.19402 39036 ft 470 kts 166°
2026-04-29 16:25 41.78834 22.22212 39040 ft 471 kts 166°
2026-04-29 16:26 41.72664 22.24992 39037 ft 470 kts 166°
2026-04-29 16:26 41.66481 22.27775 39047 ft 470 kts 166°
2026-04-29 16:27 41.60280 22.30560 39055 ft 470 kts 166°
2026-04-29 16:27 41.54108 22.33327 39061 ft 468 kts 166°
2026-04-29 16:28 41.47936 22.36086 39063 ft 470 kts 165°
2026-04-29 16:28 41.41768 22.38839 39062 ft 468 kts 165°
2026-04-29 16:29 41.35552 22.41607 39058 ft 470 kts 165°
2026-04-29 16:29 41.29353 22.44358 39052 ft 470 kts 166°
2026-04-29 16:30 41.23127 22.47012 39044 ft 468 kts 167°
2026-04-29 16:30 41.16938 22.49677 39044 ft 469 kts 165°
2026-04-29 16:31 41.10825 22.52638 39047 ft 471 kts 162°
2026-04-29 16:31 41.04733 22.55905 39052 ft 471 kts 161°
2026-04-29 16:32 40.98698 22.59192 39054 ft 472 kts 161°
2026-04-29 16:32 40.92603 22.62490 39053 ft 470 kts 161°
2026-04-29 16:33 40.83532 22.67352 39050 ft 469 kts 162°
2026-04-29 16:33 40.77491 22.70567 39051 ft 469 kts 162°
2026-04-29 16:34 40.71446 22.73777 39049 ft 468 kts 162°
2026-04-29 16:34 40.65447 22.76954 39047 ft 468 kts 162°
2026-04-29 16:35 40.59389 22.80132 39043 ft 468 kts 162°
2026-04-29 16:35 40.53310 22.83258 39050 ft 467 kts 162°
2026-04-29 16:36 40.47277 22.86346 39048 ft 468 kts 162°
2026-04-29 16:36 40.41198 22.89458 39047 ft 467 kts 162°
2026-04-29 16:37 40.35186 22.92539 39043 ft 466 kts 162°
2026-04-29 16:37 40.30156 22.95115 39042 ft 465 kts 162°
2026-04-29 16:38 40.23132 22.98707 39050 ft 466 kts 162°
2026-04-29 16:38 40.17106 23.01783 39044 ft 466 kts 162°
2026-04-29 16:39 40.11091 23.04847 39046 ft 466 kts 162°
2026-04-29 16:39 40.05061 23.07912 39048 ft 465 kts 162°
2026-04-29 16:40 39.99070 23.10953 39052 ft 464 kts 162°
2026-04-29 16:40 39.93061 23.13997 39049 ft 464 kts 162°
2026-04-29 16:41 39.87037 23.17041 39047 ft 464 kts 162°
2026-04-29 16:41 39.81027 23.20074 39052 ft 465 kts 162°
2026-04-29 16:42 39.75012 23.23104 39047 ft 464 kts 162°
2026-04-29 16:42 39.69004 23.26125 39055 ft 464 kts 162°
2026-04-29 16:43 39.62974 23.29150 39047 ft 464 kts 162°
2026-04-29 16:43 39.56994 23.32145 39048 ft 464 kts 162°
2026-04-29 16:44 39.50969 23.35157 39051 ft 463 kts 162°
2026-04-29 16:44 39.44955 23.38158 39048 ft 463 kts 162°
2026-04-29 16:45 39.38961 23.41143 39046 ft 463 kts 162°
2026-04-29 16:45 39.32986 23.44113 39044 ft 463 kts 162°
2026-04-29 16:46 39.26971 23.47097 39049 ft 463 kts 162°
2026-04-29 16:46 39.20964 23.50072 39040 ft 463 kts 161°
2026-04-29 16:47 39.14972 23.53035 39045 ft 463 kts 162°
2026-04-29 16:47 39.08951 23.56006 39038 ft 462 kts 161°
2026-04-29 16:48 39.02998 23.58938 39042 ft 461 kts 161°
2026-04-29 16:48 38.96989 23.61892 39040 ft 462 kts 161°
2026-04-29 16:49 38.91015 23.64823 39041 ft 462 kts 161°
2026-04-29 16:49 38.84965 23.67788 39047 ft 462 kts 162°
2026-04-29 16:50 38.78973 23.70718 39036 ft 462 kts 162°
2026-04-29 16:50 38.72967 23.73650 39041 ft 462 kts 162°
2026-04-29 16:51 38.66975 23.76570 39042 ft 461 kts 162°
2026-04-29 16:51 38.60995 23.79478 39045 ft 462 kts 162°
2026-04-29 16:52 38.54945 23.82415 39038 ft 463 kts 162°
2026-04-29 16:52 38.48969 23.85311 39050 ft 461 kts 162°
2026-04-29 16:53 38.42959 23.88219 39036 ft 461 kts 162°
2026-04-29 16:53 38.36986 23.91104 39044 ft 461 kts 162°
2026-04-29 16:54 38.30991 23.93993 39030 ft 461 kts 162°
2026-04-29 16:54 38.24981 23.96885 39034 ft 461 kts 162°
2026-04-29 16:55 38.19013 23.99751 39025 ft 460 kts 162°
2026-04-29 16:55 38.13022 24.02722 39040 ft 462 kts 158°
2026-04-29 16:56 38.07329 24.06449 39040 ft 464 kts 153°
2026-04-29 16:56 38.01716 24.10553 39057 ft 464 kts 152°
2026-04-29 16:57 37.96138 24.14638 39060 ft 464 kts 153°
2026-04-29 16:57 37.90510 24.18680 39066 ft 465 kts 153°
2026-04-29 16:58 37.84852 24.22683 39062 ft 465 kts 153°
2026-04-29 16:58 37.79228 24.26632 39059 ft 466 kts 153°
2026-04-29 16:59 37.73558 24.30595 39048 ft 467 kts 153°
2026-04-29 16:59 37.67867 24.34566 39051 ft 467 kts 153°
2026-04-29 17:00 37.62187 24.38521 39052 ft 467 kts 153°
2026-04-29 17:00 37.56521 24.42459 39053 ft 468 kts 154°
2026-04-29 17:01 37.50813 24.46419 39053 ft 468 kts 154°
2026-04-29 17:01 37.45024 24.50212 39049 ft 466 kts 160°
2026-04-29 17:02 37.38977 24.53056 39045 ft 464 kts 165°
2026-04-29 17:02 37.32887 24.55600 39046 ft 465 kts 165°
2026-04-29 17:03 37.26764 24.58205 39053 ft 464 kts 164°
2026-04-29 17:03 37.20654 24.60887 38843 ft 468 kts 164°
2026-04-29 17:04 37.17614 24.62242 38227 ft 466 kts 163°
2026-04-29 17:04 37.14548 24.63621 37576 ft 465 kts 163°
2026-04-29 17:04 37.11516 24.64991 36920 ft 464 kts 163°
2026-04-29 17:04 37.08492 24.66361 36279 ft 464 kts 163°
2026-04-29 17:05 37.05425 24.67752 35839 ft 462 kts 163°
2026-04-29 17:05 37.02418 24.69116 35336 ft 464 kts 163°
2026-04-29 17:05 36.99397 24.70487 34799 ft 463 kts 163°
2026-04-29 17:05 36.96384 24.71852 34244 ft 463 kts 162°
2026-04-29 17:06 36.93332 24.73234 33598 ft 463 kts 162°
2026-04-29 17:06 36.90315 24.74600 33008 ft 460 kts 162°
2026-04-29 17:06 36.87345 24.75944 32444 ft 458 kts 162°
2026-04-29 17:06 36.84339 24.77303 31872 ft 455 kts 162°
2026-04-29 17:07 36.81395 24.78632 31313 ft 452 kts 162°
2026-04-29 17:07 36.79404 24.79531 30937 ft 450 kts 162°
2026-04-29 17:07 36.75491 24.81294 30186 ft 447 kts 162°
2026-04-29 17:07 36.72589 24.82601 29633 ft 444 kts 162°
2026-04-29 17:08 36.69694 24.83902 29082 ft 442 kts 162°
2026-04-29 17:08 36.66831 24.85189 28526 ft 439 kts 162°
2026-04-29 17:08 36.63959 24.86480 27969 ft 437 kts 161°
2026-04-29 17:08 36.61102 24.87763 27409 ft 434 kts 162°
2026-04-29 17:09 36.58298 24.89022 26869 ft 432 kts 161°
2026-04-29 17:09 36.55477 24.90288 26321 ft 429 kts 161°
2026-04-29 17:09 36.52668 24.91547 25770 ft 426 kts 161°
2026-04-29 17:09 36.49911 24.92782 25230 ft 423 kts 161°
2026-04-29 17:10 36.47138 24.94022 24686 ft 421 kts 161°
2026-04-29 17:10 36.44421 24.95237 24150 ft 418 kts 161°
2026-04-29 17:10 36.41694 24.96456 23607 ft 415 kts 161°
2026-04-29 17:10 36.38989 24.97663 23077 ft 411 kts 161°
2026-04-29 17:11 36.36301 24.98862 22546 ft 408 kts 161°
2026-04-29 17:11 36.33628 25.00053 22021 ft 405 kts 161°
2026-04-29 17:11 36.31008 25.01221 21499 ft 402 kts 161°
2026-04-29 17:11 36.28393 25.02384 20986 ft 399 kts 161°
2026-04-29 17:12 36.25774 25.03549 20467 ft 396 kts 161°
2026-04-29 17:12 36.23193 25.04695 19928 ft 391 kts 161°
2026-04-29 17:12 36.20664 25.05819 19451 ft 382 kts 161°
2026-04-29 17:12 36.19029 25.06546 19128 ft 376 kts 161°
2026-04-29 17:13 36.15807 25.07977 18486 ft 365 kts 161°
2026-04-29 17:13 36.13446 25.09025 18033 ft 358 kts 161°
2026-04-29 17:13 36.11100 25.10064 17542 ft 356 kts 161°
2026-04-29 17:13 36.08774 25.11092 17078 ft 354 kts 161°
2026-04-29 17:14 36.06462 25.12114 16616 ft 351 kts 161°
2026-04-29 17:14 36.04166 25.13128 16150 ft 349 kts 161°
2026-04-29 17:14 36.01908 25.14125 15694 ft 347 kts 161°
2026-04-29 17:14 35.99631 25.15130 15238 ft 345 kts 161°
2026-04-29 17:15 35.97394 25.16116 14792 ft 343 kts 161°
2026-04-29 17:15 35.95137 25.17112 14335 ft 341 kts 161°
2026-04-29 17:15 35.92910 25.18093 13886 ft 339 kts 161°
2026-04-29 17:15 35.90695 25.19068 13441 ft 337 kts 161°
2026-04-29 17:16 35.88504 25.20033 13000 ft 336 kts 161°
2026-04-29 17:16 35.86298 25.21003 12548 ft 334 kts 161°
2026-04-29 17:16 35.84106 25.21967 12103 ft 332 kts 161°
2026-04-29 17:16 35.81943 25.22917 11671 ft 330 kts 160°
2026-04-29 17:17 35.79794 25.23860 11221 ft 329 kts 160°
2026-04-29 17:17 35.77631 25.24809 10785 ft 327 kts 160°
2026-04-29 17:17 35.75487 25.25749 10342 ft 326 kts 160°
2026-04-29 17:17 35.73358 25.26683 10060 ft 319 kts 160°
2026-04-29 17:18 35.71309 25.27582 9907 ft 308 kts 160°
2026-04-29 17:18 35.69300 25.28462 9468 ft 308 kts 160°
2026-04-29 17:18 35.67296 25.29339 9090 ft 307 kts 160°
2026-04-29 17:18 35.65282 25.30220 8702 ft 305 kts 160°
2026-04-29 17:19 35.63277 25.31096 8322 ft 303 kts 160°
2026-04-29 17:19 35.61306 25.31957 8105 ft 295 kts 160°
2026-04-29 17:19 35.59390 25.32794 7853 ft 290 kts 160°
2026-04-29 17:19 35.57486 25.33625 7399 ft 293 kts 160°
2026-04-29 17:20 35.55558 25.34467 7023 ft 292 kts 159°
2026-04-29 17:20 35.53668 25.35290 6659 ft 291 kts 159°
2026-04-29 17:20 35.51754 25.36124 6296 ft 289 kts 159°
2026-04-29 17:20 35.49876 25.36942 5918 ft 289 kts 159°
2026-04-29 17:21 35.47966 25.37774 5527 ft 289 kts 159°
2026-04-29 17:21 35.46080 25.38594 5274 ft 283 kts 159°
2026-04-29 17:21 35.44323 25.39505 5194 ft 270 kts 152°
2026-04-29 17:21 35.42696 25.40568 5121 ft 258 kts 149°
2026-04-29 17:22 35.41161 25.41644 5048 ft 247 kts 148°
2026-04-29 17:22 35.39693 25.42675 4973 ft 237 kts 149°
2026-04-29 17:22 35.38203 25.43455 4903 ft 235 kts 167°
2026-04-29 17:22 35.36563 25.43346 4824 ft 242 kts 203°
2026-04-29 17:23 35.35195 25.42147 4406 ft 248 kts 234°
2026-04-29 17:23 35.34348 25.40298 3855 ft 256 kts 248°
2026-04-29 17:23 35.33635 25.38307 3305 ft 257 kts 248°
2026-04-29 17:23 35.32979 25.36292 2756 ft 253 kts 255°
2026-04-29 17:24 35.32735 25.34207 2373 ft 243 kts 273°
2026-04-29 17:24 35.32880 25.32256 2259 ft 223 kts 279°
2026-04-29 17:24 35.33069 25.30423 2098 ft 209 kts 278°
2026-04-29 17:24 35.33218 25.28733 1946 ft 191 kts 277°
2026-04-29 17:25 35.33337 25.27161 1612 ft 179 kts 277°
2026-04-29 17:25 35.33441 25.25702 1304 ft 166 kts 276°
2026-04-29 17:25 35.33547 25.24330 1005 ft 158 kts 277°
2026-04-29 17:25 35.33660 25.22993 741 ft 157 kts 274°
2026-04-29 17:26 35.33722 25.21683 534 ft 155 kts 274°
2026-04-29 17:26 35.33814 25.20377 347 ft 153 kts 276°
2026-04-29 17:26 35.33905 25.19062 140 ft 155 kts 274°
2026-04-29 17:26 35.33992 25.17839 91 ft 119 kts 272°
2026-04-29 17:27 35.34035 25.17154 90 ft 45 kts 275°
2026-04-29 17:27 35.34060 25.16804 91 ft 27 kts 274°
2026-04-29 17:27 35.34058 25.16667 89 ft 4 kts 216°
2026-04-29 17:27 35.34037 25.16661 90 ft 1 kts 173°
2026-04-29 17:28 35.33996 25.16697 92 ft 10 kts 127°
2026-04-29 17:28 35.33964 25.16761 94 ft 7 kts 108°
2026-04-29 17:28 35.33958 25.16815 94 ft 5 kts 96°
2026-04-29 17:28 35.33955 25.16858 95 ft 5 kts 96°
2026-04-29 17:29 35.33947 25.16973 95 ft 22 kts 94°
2026-04-29 17:29 35.33934 25.17172 93 ft 23 kts 94°
2026-04-29 17:29 35.33923 25.17349 103 ft 17 kts 94°
2026-04-29 17:29 35.33917 25.17438 106 ft 14 kts 94°
2026-04-29 17:30 35.33867 25.17499 112 ft 4 kts 179°
2026-04-29 17:30 35.33848 25.17498 113 ft 2 kts 182°
2026-04-29 17:30 35.33828 25.17497 114 ft 0 kts 184°
2026-04-29 17:30 35.33791 25.17493 118 ft 9 kts 186°
2026-04-29 17:31 35.33766 25.17438 117 ft 8 kts 277°
2026-04-29 17:31 35.33767 25.17420 116 ft 0 kts 276°